HIMAWARI-8

Last updated on Fri Apr 18 2025 00:02:18 GMT+0000 (Coordinated Universal Time)

1 40267U 14060A 25107.56186878 -.00000266 00000+0 00000+0 0 9997 2 40267 0.0106 196.3940 0001108 203.8116 148.6500 1.00270484 38484
UTC large
Height (km)
Speed (km/s)
/
Latitude / Longitude
Inclination (degrees)
Orbital Period (minutes)
Azimuth
Elevation
Range (km)
Doppler Factor

Next 0 passes for location: London (51.5072 / 0.1276)

Sorry there are no passes over London.